Location: New Plymouth
(39.0670°S, 174.0830°E)
Time: 21:39:01
(UTC+13:00)

Cosmos 2333 Rocket - Pass Details

Date: 24 January 2019
Orbit: 840 x 862 km, 70.8° (Epoch: 17 October)

Event Time Altitude Azimuth Distance (km) Brightness Sun altitude
Exits shadow 23:33:32 57° 76° (ENE) 1,019 2.3 -25.1°
Drops below altitude 10° 23:39:07 10° 149° (SSE) 2,526 5.0 -25.6°
Sets 23:41:37 0° 152° (SSE) 3,467 5.8 -25.9°
